Location: Burleson Alternative School
(32.5290°N, 97.3406°W)
Time: 23:17:29
(UTC+00:00)

Tiros 1 - Visible Passes

Search period start: 04 November 2024 00:00
Search period end: 14 November 2024 00:00
Orbit: 622 x 654 km, 48.4° (Epoch: 04 November)

Date Brightness Start Highest point End Pass type
(mag) Time Alt. Az. Time Alt. Az. Time Alt. Az.
04 Nov 8.4 01:36:49 10° SSW 01:39:36 32° S 01:39:36 32° S visible
04 Nov 9.9 10:19:55 10° SSE 10:19:55 10° SSE 10:19:58 10° SSE visible
05 Nov 8.9 00:20:03 10° SSE 00:22:51 16° SE 00:24:52 12° E visible
05 Nov 8.6 01:59:41 10° SW 02:02:23 34° WSW 02:02:23 34° WSW visible
06 Nov 7.8 00:41:19 10° SSW 00:45:40 38° SE 00:47:33 27° E visible
06 Nov 9.6 02:23:18 10° W 02:25:03 20° W 02:25:03 20° W visible
07 Nov 7.1 01:03:56 10° SW 01:08:39 89° NW 01:10:07 45° NE visible
07 Nov 10.3 02:47:33 10° WNW 02:47:37 10° WNW 02:47:37 10° WNW visible
08 Nov 8.0 01:27:22 10° WSW 01:31:51 42° NNW 01:32:36 39° N visible
09 Nov 7.2 00:08:12 10° SW 00:12:53 75° SE 00:17:29 11° NE visible
09 Nov 9.0 01:51:28 10° W 01:54:58 23° NNW 01:54:58 23° NNW visible
10 Nov 7.9 00:31:27 10° WSW 00:36:00 49° NW 00:39:46 15° NE visible
10 Nov 9.8 02:16:03 10° NW 02:17:15 13° NW 02:17:15 13° NW visible
11 Nov 8.8 00:55:22 10° W 00:59:21 26° NNW 01:01:58 17° NNE visible
12 Nov 9.2 01:19:50 10° WNW 01:22:54 17° NNW 01:24:06 16° N visible
12 Nov 8.6 23:59:15 10° W 00:03:25 30° NNW 00:07:35 10° NNE visible
13 Nov 9.6 01:44:35 10° NW 01:46:11 12° NNW 01:46:11 12° NNW visible
